| time (UTC) | temp F | wind direction | speed knots | gust knots | rain 1hr in | rain 24hr in | rain mn in | humidity % | barometer mb |
| 20260507151028 | 56 | 58 | 10.4 | 12.2 | 0.04 | 0.53 | 0.53 | 87 | 1011.2 |
| 20260507150528 | 56 | 51 | 6.1 | 12.2 | 0.04 | 0.53 | 0.53 | 88 | 1011.2 |
| 20260507150028 | 56 | 54 | 6.1 | 12.2 | 0.03 | 0.52 | 0.52 | 88 | 1011.2 |
| 20260507145527 | 57 | 34 | 7.0 | 11.3 | 0.03 | 0.52 | 0.52 | 90 | 1011.5 |
| 20260507145028 | 57 | 23 | 3.5 | 11.3 | 0.03 | 0.52 | 0.52 | 90 | 1011.5 |
| 20260507144528 | 57 | 24 | 4.3 | 11.3 | 0.03 | 0.52 | 0.52 | 90 | 1011.5 |
| 20260507144028 | 57 | 46 | 6.1 | 11.3 | 0.03 | 0.52 | 0.52 | 90 | 1011.2 |
| 20260507143528 | 57 | 46 | 4.3 | 12.2 | 0.03 | 0.52 | 0.52 | 89 | 1011.2 |
| 20260507143028 | 57 | 39 | 4.3 | 12.2 | 0.02 | 0.51 | 0.51 | 89 | 1011.2 |
| 20260507142027 | 57 | 41 | 6.1 | 14.8 | 0.01 | 0.50 | 0.50 | 88 | 1011.7 |
| 20260507141527 | 57 | 6 | 10.4 | 13.0 | 0.01 | 0.50 | 0.50 | 88 | 1011.7 |
| 20260507141027 | 57 | 28 | 8.7 | 13.0 | 0.00 | 0.49 | 0.49 | 86 | 1011.2 |
| 20260507140527 | 58 | 60 | 7.0 | 13.9 | 0.00 | 0.49 | 0.49 | 87 | 1011.2 |
| 20260507140027 | 58 | 55 | 7.0 | 13.9 | 0.00 | 0.49 | 0.49 | 87 | 1011.2 |
| 20260507135528 | 58 | 1 | 10.4 | 15.6 | 0.00 | 0.49 | 0.49 | 86 | 1011.2 |
| 20260507134027 | 58 | 25 | 9.6 | 11.3 | 0.00 | 0.49 | 0.49 | 88 | 1011.2 |
| 20260507133528 | 58 | 23 | 7.0 | 13.9 | 0.00 | 0.49 | 0.49 | 88 | 1011.2 |
| 20260507133027 | 58 | 24 | 8.7 | 13.9 | 0.01 | 0.49 | 0.49 | 88 | 1011.2 |
| 20260507132527 | 58 | 27 | 6.1 | 13.0 | 0.01 | 0.49 | 0.49 | 89 | 1011.2 |
| 20260507132027 | 58 | 26 | 5.2 | 13.0 | 0.01 | 0.49 | 0.49 | 89 | 1011.2 |
| 20260507131527 | 58 | 34 | 8.7 | 13.0 | 0.02 | 0.49 | 0.49 | 89 | 1011.2 |
| 20260507131027 | 58 | 26 | 8.7 | 13.0 | 0.02 | 0.49 | 0.49 | 89 | 1010.7 |
| 20260507130527 | 59 | 50 | 5.2 | 13.0 | 0.02 | 0.49 | 0.49 | 91 | 1010.7 |
| 20260507130027 | 59 | 25 | 7.8 | 13.9 | 0.02 | 0.49 | 0.49 | 92 | 1010.7 |
| 20260507125527 | 59 | 1 | 10.4 | 13.9 | 0.02 | 0.49 | 0.49 | 92 | 1011.1 |
| 20260507125027 | 59 | 41 | 7.8 | 12.2 | 0.02 | 0.49 | 0.49 | 92 | 1011.1 |
| 20260507124527 | 59 | 25 | 6.1 | 13.0 | 0.03 | 0.49 | 0.49 | 93 | 1011.1 |
| 20260507124027 | 60 | 20 | 3.5 | 13.0 | 0.03 | 0.49 | 0.49 | 93 | 1010.7 |
| 20260507123527 | 60 | 38 | 4.3 | 12.2 | 0.04 | 0.49 | 0.49 | 93 | 1010.7 |
| 20260507123027 | 59 | 37 | 8.7 | 10.4 | 0.05 | 0.48 | 0.48 | 93 | 1010.7 |
| 20260507122526 | 59 | 27 | 2.6 | 8.7 | 0.06 | 0.48 | 0.48 | 93 | 1011.2 |
| 20260507122027 | 59 | 25 | 3.5 | 8.7 | 0.07 | 0.48 | 0.48 | 93 | 1011.2 |
| 20260507121527 | 59 | 25 | 3.5 | 11.3 | 0.07 | 0.47 | 0.47 | 93 | 1011.2 |
| 20260507121027 | 59 | 28 | 3.5 | 11.3 | 0.07 | 0.47 | 0.47 | 93 | 1010.9 |
| 20260507120026 | 59 | 37 | 4.3 | 9.6 | 0.09 | 0.47 | 0.47 | 92 | 1010.9 |
| 20260507115526 | 59 | 28 | 4.3 | 9.6 | 0.09 | 0.47 | 0.47 | 92 | 1011.2 |
| 20260507115026 | 59 | 4 | 5.2 | 12.2 | 0.10 | 0.47 | 0.47 | 92 | 1011.2 |
| 20260507114526 | 59 | 35 | 8.7 | 12.2 | 0.11 | 0.46 | 0.46 | 92 | 1011.2 |
| 20260507114026 | 60 | 19 | 7.0 | 9.6 | 0.14 | 0.46 | 0.46 | 92 | 1010.7 |
| 20260507113526 | 60 | 15 | 6.1 | 12.2 | 0.14 | 0.45 | 0.45 | 93 | 1010.7 |
| 20260507112526 | 61 | 29 | 6.1 | 8.7 | 0.13 | 0.42 | 0.42 | 94 | 1010.3 |
| 20260507112026 | 61 | 36 | 6.1 | 11.3 | 0.13 | 0.41 | 0.41 | 94 | 1010.3 |
| 20260507111526 | 61 | 36 | 4.3 | 14.8 | 0.13 | 0.40 | 0.40 | 94 | 1010.3 |
| 20260507111026 | 61 | 64 | 4.3 | 14.8 | 0.15 | 0.40 | 0.40 | 94 | 1010.2 |
| 20260507110526 | 62 | 9 | 7.0 | 12.2 | 0.14 | 0.39 | 0.39 | 94 | 1010.2 |
| 20260507105026 | 63 | 34 | 2.6 | 10.4 | 0.15 | 0.37 | 0.37 | 93 | 1010.0 |
| 20260507104526 | 63 | 42 | 4.3 | 12.2 | 0.14 | 0.35 | 0.35 | 94 | 1010.0 |
| 20260507104026 | 64 | 28 | 4.3 | 14.8 | 0.13 | 0.32 | 0.32 | 93 | 1009.6 |
| 20260507103026 | 67 | 197 | 6.1 | 7.8 | 0.14 | 0.30 | 0.30 | 94 | 1009.6 |
| 20260507102526 | 67 | 203 | 0.0 | 0.0 | 0.16 | 0.29 | 0.29 | 94 | 1009.2 |
| 20260507102026 | 67 | 203 | 0.0 | 4.3 | 0.19 | 0.28 | 0.28 | 94 | 1009.2 |
| 20260507101526 | 67 | 203 | 0.0 | 4.3 | 0.18 | 0.27 | 0.27 | 94 | 1009.2 |
| 20260507101026 | 67 | 203 | 0.0 | 0.0 | 0.16 | 0.25 | 0.25 | 94 | 1009.1 |
| 20260507100026 | 67 | 203 | 0.0 | 2.6 | 0.16 | 0.25 | 0.25 | 94 | 1009.1 |
| 20260507094526 | 68 | 203 | 0.0 | 5.2 | 0.12 | 0.21 | 0.21 | 94 | 1009.1 |
| 20260507094026 | 68 | 203 | 0.0 | 3.5 | 0.10 | 0.19 | 0.19 | 93 | 1009.0 |
| 20260507093026 | 68 | 203 | 0.0 | 4.3 | 0.07 | 0.16 | 0.16 | 93 | 1009.0 |
| 20260507092526 | 68 | 203 | 2.6 | 4.3 | 0.04 | 0.13 | 0.13 | 93 | 1009.1 |
| 20260507091025 | 68 | 203 | 0.9 | 6.1 | 0.00 | 0.09 | 0.09 | 93 | 1008.3 |
| 20260507090526 | 68 | 203 | 2.6 | 6.1 | 0.00 | 0.09 | 0.09 | 93 | 1008.3 |
| 20260507090026 | 68 | 203 | 2.6 | 4.3 | 0.00 | 0.09 | 0.09 | 93 | 1008.3 |
| 20260507085525 | 68 | 203 | 2.6 | 3.5 | 0.00 | 0.09 | 0.09 | 93 | 1008.6 |
| 20260507085025 | 68 | 203 | 0.0 | 5.2 | 0.01 | 0.09 | 0.09 | 93 | 1008.6 |
| 20260507084525 | 68 | 203 | 0.0 | 5.2 | 0.01 | 0.09 | 0.09 | 93 | 1008.6 |
| 20260507084025 | 68 | 202 | 2.6 | 7.8 | 0.01 | 0.09 | 0.09 | 93 | 1008.6 |
| 20260507083526 | 68 | 202 | 2.6 | 8.7 | 0.01 | 0.09 | 0.09 | 92 | 1008.6 |
| 20260507083025 | 68 | 200 | 2.6 | 9.6 | 0.01 | 0.09 | 0.09 | 92 | 1008.6 |
| 20260507082525 | 68 | 201 | 5.2 | 9.6 | 0.01 | 0.09 | 0.09 | 92 | 1008.5 |
| 20260507082025 | 68 | 199 | 5.2 | 8.7 | 0.01 | 0.09 | 0.09 | 92 | 1008.5 |
| 20260507081525 | 68 | 199 | 8.7 | 8.7 | 0.01 | 0.09 | 0.09 | 92 | 1008.5 |
| 20260507081025 | 68 | 198 | 6.1 | 13.0 | 0.01 | 0.09 | 0.09 | 92 | 1008.6 |
| 20260507080526 | 68 | 197 | 2.6 | 13.0 | 0.01 | 0.09 | 0.09 | 92 | 1008.6 |
| 20260507080025 | 68 | 219 | 10.4 | 10.4 | 0.01 | 0.09 | 0.09 | 92 | 1008.6 |
| 20260507075025 | 68 | 236 | 1.7 | 5.2 | 0.00 | 0.08 | 0.08 | 92 | 1009.0 |
| 20260507074525 | 68 | 236 | 2.6 | 6.1 | 0.00 | 0.08 | 0.08 | 92 | 1009.0 |
| 20260507074025 | 68 | 236 | 4.3 | 7.8 | 0.00 | 0.08 | 0.08 | 92 | 1009.0 |
| 20260507073025 | 68 | 236 | 7.0 | 8.7 | 0.00 | 0.08 | 0.08 | 92 | 1009.0 |
| 20260507072525 | 68 | 229 | 2.6 | 9.6 | 0.00 | 0.08 | 0.08 | 92 | 1008.6 |
| 20260507072024 | 68 | 224 | 6.1 | 9.6 | 0.01 | 0.08 | 0.08 | 93 | 1008.6 |
| 20260507071524 | 68 | 205 | 3.5 | 9.6 | 0.02 | 0.08 | 0.08 | 93 | 1008.6 |
| 20260507071025 | 68 | 205 | 5.2 | 9.6 | 0.03 | 0.08 | 0.08 | 93 | 1008.8 |
| 20260507070525 | 68 | 201 | 3.5 | 8.7 | 0.03 | 0.08 | 0.08 | 93 | 1008.8 |
| 20260507070024 | 68 | 203 | 5.2 | 8.7 | 0.04 | 0.08 | 0.08 | 93 | 1008.8 |
| 20260507065524 | 68 | 208 | 4.3 | 7.8 | 0.04 | 0.08 | 0.08 | 93 | 1008.6 |
| 20260507064525 | 68 | 207 | 3.5 | 8.7 | 0.05 | 0.08 | 0.08 | 93 | 1008.6 |
| 20260507063524 | 68 | 209 | 0.9 | 8.7 | 0.05 | 0.08 | 0.08 | 92 | 1008.8 |
| 20260507063024 | 68 | 211 | 3.5 | 5.2 | 0.05 | 0.08 | 0.08 | 92 | 1008.8 |
| 20260507062024 | 68 | 211 | 0.0 | 6.1 | 0.04 | 0.07 | 0.07 | 91 | 1008.7 |
| 20260507060024 | 68 | 212 | 7.8 | 7.8 | 0.02 | 0.04 | 0.04 | 91 | 1009.6 |
| 20260507055024 | 68 | 212 | 3.5 | 6.1 | 0.03 | 0.04 | 0.04 | 90 | 1010.0 |
| 20260507054524 | 68 | 212 | 2.6 | 6.1 | 0.02 | 0.03 | 0.03 | 90 | 1010.0 |
| 20260507054024 | 68 | 214 | 3.5 | 6.1 | 0.03 | 0.03 | 0.03 | 90 | 1010.0 |
| 20260507052524 | 69 | 211 | 1.7 | 6.1 | 0.03 | 0.03 | 0.03 | 89 | 1010.2 |
| 20260507052024 | 69 | 211 | 4.3 | 6.1 | 0.03 | 0.03 | 0.03 | 89 | 1010.2 |
| 20260507051025 | 69 | 213 | 1.7 | 6.1 | 0.02 | 0.02 | 0.02 | 88 | 1010.2 |
| 20260507050523 | 69 | 212 | 0.9 | 6.1 | 0.02 | 0.02 | 0.02 | 88 | 1010.2 |
| 20260507050024 | 69 | 209 | 0.0 | 4.3 | 0.02 | 0.02 | 0.02 | 87 | 1010.2 |
| 20260507045524 | 69 | 209 | 0.0 | 3.5 | 0.01 | 0.01 | 0.01 | 86 | 1009.7 |
| 20260507044524 | 70 | 209 | 0.9 | 5.2 | 0.01 | 0.01 | 0.01 | 85 | 1009.7 |
| 20260507044023 | 70 | 208 | 0.9 | 4.3 | 0.00 | 0.00 | 0.00 | 84 | 1009.9 |
| 20260507043523 | 70 | 209 | 0.0 | 5.2 | 0.00 | 0.00 | 0.00 | 82 | 1009.9 |
| 20260507043023 | 71 | 208 | 2.6 | 6.1 | 0.00 | 0.00 | 0.00 | 81 | 1009.9 |
| 20260507042524 | 71 | 208 | 0.9 | 7.8 | 0.00 | 0.00 | 0.00 | 80 | 1010.0 |
| 20260507041023 | 71 | 208 | 0.0 | 4.3 | 0.00 | 0.00 | 0.00 | 79 | 1010.0 |
| 20260507040523 | 71 | 207 | 2.6 | 5.2 | 0.00 | 0.00 | 0.00 | 79 | 1010.0 |
| 20260507040053 | 71 | 207 | 2.6 | 5.2 | 0.00 | 0.00 | 0.00 | 78 | 1010.0 |
| 20260507035524 | 72 | 208 | 0.9 | 3.5 | 0.00 | 0.00 | 0.00 | 78 | 1009.9 |
| 20260507035024 | 72 | 208 | 0.9 | 3.5 | 0.00 | 0.00 | 0.00 | 78 | 1009.9 |
| 20260507034523 | 72 | 208 | 1.7 | 5.2 | 0.00 | 0.00 | 0.00 | 78 | 1009.9 |
| 20260507033023 | 72 | 208 | 4.3 | 6.1 | 0.00 | 0.00 | 0.00 | 77 | 1009.8 |
| 20260507032523 | 72 | 208 | 1.7 | 6.1 | 0.00 | 0.00 | 0.00 | 77 | 1009.7 |
| 20260507032023 | 72 | 207 | 1.7 | 6.1 | 0.00 | 0.00 | 0.00 | 77 | 1009.7 |
| 20260507031023 | 72 | 208 | 1.7 | 9.6 | 0.00 | 0.00 | 0.00 | 77 | 1009.6 |
| 20260507030523 | 72 | 209 | 5.2 | 9.6 | 0.00 | 0.00 | 0.00 | 77 | 1009.6 |
| 20260507025523 | 72 | 217 | 4.3 | 8.7 | 0.00 | 0.00 | 0.00 | 76 | 1009.8 |
| 20260507025023 | 72 | 217 | 2.6 | 8.7 | 0.00 | 0.00 | 0.00 | 76 | 1009.8 |
| 20260507024023 | 72 | 220 | 2.6 | 7.8 | 0.00 | 0.00 | 0.00 | 76 | 1009.9 |
| 20260507023523 | 73 | 221 | 2.6 | 7.8 | 0.00 | 0.00 | 0.00 | 76 | 1009.9 |
| 20260507023023 | 73 | 221 | 1.7 | 8.7 | 0.00 | 0.00 | 0.00 | 76 | 1009.9 |
| 20260507021522 | 73 | 226 | 0.9 | 7.8 | 0.00 | 0.00 | 0.00 | 75 | 1010.1 |
| 20260507021023 | 73 | 227 | 3.5 | 7.8 | 0.00 | 0.00 | 0.00 | 75 | 1010.1 |
| 20260507020523 | 73 | 226 | 0.0 | 8.7 | 0.00 | 0.00 | 0.00 | 75 | 1010.1 |
| 20260507020022 | 73 | 226 | 0.0 | 8.7 | 0.00 | 0.00 | 0.00 | 75 | 1010.1 |
| 20260507015523 | 73 | 232 | 1.7 | 6.1 | 0.00 | 0.00 | 0.00 | 75 | 1010.2 |
| 20260507015022 | 73 | 235 | 3.5 | 9.6 | 0.00 | 0.00 | 0.00 | 75 | 1010.2 |
| 20260507014523 | 73 | 227 | 4.3 | 9.6 | 0.00 | 0.00 | 0.00 | 75 | 1010.2 |
| 20260507014023 | 73 | 223 | 1.7 | 5.2 | 0.00 | 0.00 | 0.00 | 74 | 1010.1 |
| 20260507012022 | 73 | 222 | 1.7 | 5.2 | 0.00 | 0.00 | 0.00 | 74 | 1009.9 |
| 20260507011022 | 73 | 222 | 3.5 | 4.3 | 0.00 | 0.00 | 0.00 | 73 | 1010.1 |
| 20260507010522 | 73 | 222 | 0.9 | 3.5 | 0.00 | 0.00 | 0.00 | 73 | 1010.1 |
| 20260507010022 | 74 | 222 | 0.0 | 4.3 | 0.00 | 0.00 | 0.00 | 73 | 1010.1 |
| 20260507005522 | 74 | 222 | 0.0 | 4.3 | 0.00 | 0.00 | 0.00 | 72 | 1010.2 |
| 20260507004522 | 74 | 223 | 2.6 | 4.3 | 0.00 | 0.00 | 0.00 | 72 | 1010.2 |
| 20260507004022 | 74 | 222 | 1.7 | 4.3 | 0.00 | 0.00 | 0.00 | 71 | 1010.1 |
| 20260507003522 | 74 | 223 | 0.9 | 5.2 | 0.00 | 0.00 | 0.00 | 71 | 1010.1 |
| 20260507003022 | 75 | 223 | 0.0 | 7.8 | 0.00 | 0.00 | 0.00 | 70 | 1010.1 |
| 20260507002522 | 75 | 223 | 1.7 | 7.8 | 0.00 | 0.00 | 0.00 | 70 | 1010.0 |
| 20260507002022 | 75 | 223 | 1.7 | 6.1 | 0.00 | 0.00 | 0.00 | 70 | 1010.0 |
| 20260507001522 | 75 | 224 | 0.0 | 4.3 | 0.00 | 0.00 | 0.00 | 70 | 1010.0 |
| 20260507001023 | 75 | 224 | 0.0 | 8.7 | 0.00 | 0.00 | 0.00 | 69 | 1009.8 |
| 20260507000023 | 75 | 223 | 4.3 | 7.8 | 0.00 | 0.00 | 0.00 | 69 | 1009.8 |
| 20260506235022 | 76 | 226 | 0.9 | 6.1 | 0.00 | 0.00 | 0.00 | 68 | 1009.6 |
| 20260506234522 | 76 | 228 | 2.6 | 8.7 | 0.00 | 0.00 | 0.00 | 68 | 1009.6 |
| 20260506234022 | 76 | 229 | 1.7 | 8.7 | 0.00 | 0.00 | 0.00 | 67 | 1009.6 |
| 20260506233522 | 76 | 237 | 2.6 | 8.7 | 0.00 | 0.00 | 0.00 | 67 | 1009.6 |
| 20260506232522 | 76 | 233 | 2.6 | 10.4 | 0.00 | 0.00 | 0.00 | 67 | 1009.4 |
| 20260506232022 | 76 | 230 | 0.9 | 10.4 | 0.00 | 0.00 | 0.00 | 66 | 1009.4 |
| 20260506231022 | 76 | 245 | 2.6 | 8.7 | 0.00 | 0.00 | 0.00 | 66 | 1009.4 |
| 20260506230522 | 76 | 248 | 0.9 | 8.7 | 0.00 | 0.00 | 0.00 | 66 | 1009.4 |
| 20260506225522 | 77 | 231 | 2.6 | 13.0 | 0.00 | 0.00 | 0.00 | 66 | 1009.4 |
| 20260506225022 | 77 | 228 | 13.0 | 13.0 | 0.00 | 0.00 | 0.00 | 66 | 1009.4 |
| 20260506224522 | 77 | 229 | 5.2 | 9.6 | 0.00 | 0.00 | 0.00 | 66 | 1009.4 |
| 20260506223522 | 77 | 234 | 5.2 | 8.7 | 0.00 | 0.00 | 0.00 | 65 | 1009.6 |
| 20260506223021 | 77 | 227 | 2.6 | 8.7 | 0.00 | 0.00 | 0.00 | 66 | 1009.6 |
| 20260506222522 | 77 | 219 | 3.5 | 8.7 | 0.00 | 0.00 | 0.00 | 65 | 1009.6 |
| 20260506221521 | 77 | 214 | 1.7 | 6.1 | 0.00 | 0.00 | 0.00 | 66 | 1009.6 |
| 20260506221021 | 77 | 213 | 1.7 | 6.1 | 0.00 | 0.00 | 0.00 | 66 | 1009.4 |
| 20260506220521 | 77 | 210 | 2.6 | 7.0 | 0.00 | 0.00 | 0.00 | 66 | 1009.4 |
| 20260506220021 | 77 | 210 | 2.6 | 8.7 | 0.00 | 0.00 | 0.00 | 65 | 1009.4 |
| 20260506215521 | 77 | 204 | 5.2 | 8.7 | 0.00 | 0.00 | 0.00 | 66 | 1009.1 |
| 20260506215021 | 77 | 212 | 0.0 | 9.6 | 0.00 | 0.00 | 0.00 | 66 | 1009.1 |
| 20260506214521 | 77 | 214 | 5.2 | 9.6 | 0.00 | 0.00 | 0.00 | 65 | 1009.1 |
| 20260506214021 | 77 | 213 | 2.6 | 8.7 | 0.00 | 0.00 | 0.00 | 65 | 1009.4 |
| 20260506213521 | 77 | 226 | 1.7 | 10.4 | 0.00 | 0.00 | 0.00 | 65 | 1009.4 |
| 20260506213021 | 77 | 185 | 0.0 | 12.2 | 0.00 | 0.00 | 0.00 | 65 | 1009.4 |
| 20260506212521 | 77 | 209 | 6.1 | 12.2 | 0.00 | 0.00 | 0.00 | 65 | 1009.4 |
| 20260506212021 | 77 | 221 | 5.2 | 10.4 | 0.00 | 0.00 | 0.00 | 65 | 1009.4 |
| 20260506211521 | 77 | 228 | 5.2 | 8.7 | 0.00 | 0.00 | 0.00 | 65 | 1009.4 |
| 20260506211021 | 77 | 227 | 4.3 | 9.6 | 0.00 | 0.00 | 0.00 | 65 | 1008.8 |
| 20260506210521 | 77 | 259 | 2.6 | 13.0 | 0.00 | 0.00 | 0.00 | 65 | 1008.8 |
| 20260506210021 | 77 | 269 | 4.3 | 14.8 | 0.00 | 0.00 | 0.00 | 64 | 1008.8 |
| 20260506205521 | 77 | 230 | 4.3 | 20.9 | 0.00 | 0.00 | 0.00 | 64 | 1008.8 |
| 20260506205021 | 77 | 226 | 8.7 | 20.9 | 0.00 | 0.00 | 0.00 | 64 | 1008.8 |
| 20260506204521 | 77 | 219 | 8.7 | 16.5 | 0.00 | 0.00 | 0.00 | 64 | 1008.8 |
| 20260506204021 | 77 | 209 | 6.1 | 16.5 | 0.00 | 0.00 | 0.00 | 64 | 1008.8 |
| 20260506203521 | 77 | 210 | 7.0 | 13.9 | 0.00 | 0.00 | 0.00 | 64 | 1008.8 |
| 20260506203021 | 77 | 210 | 7.0 | 16.5 | 0.00 | 0.00 | 0.00 | 64 | 1008.8 |
| 20260506202520 | 77 | 220 | 2.6 | 16.5 | 0.00 | 0.00 | 0.00 | 65 | 1009.1 |
| 20260506202021 | 77 | 189 | 9.6 | 15.6 | 0.00 | 0.00 | 0.00 | 65 | 1009.1 |
| 20260506201521 | 77 | 209 | 9.6 | 20.0 | 0.00 | 0.00 | 0.00 | 65 | 1009.1 |
| 20260506201020 | 77 | 207 | 8.7 | 20.0 | 0.00 | 0.00 | 0.00 | 65 | 1009.5 |
| 20260506200521 | 77 | 170 | 8.7 | 19.1 | 0.00 | 0.00 | 0.00 | 66 | 1009.5 |
| 20260506200020 | 77 | 200 | 8.7 | 19.1 | 0.00 | 0.00 | 0.00 | 66 | 1009.5 |
| 20260506195520 | 76 | 202 | 13.0 | 14.8 | 0.00 | 0.00 | 0.00 | 68 | 1009.9 |
| 20260506195020 | 76 | 214 | 4.3 | 14.8 | 0.00 | 0.00 | 0.00 | 69 | 1009.9 |
| 20260506194520 | 75 | 191 | 0.0 | 12.2 | 0.00 | 0.00 | 0.00 | 71 | 1009.9 |
| 20260506194020 | 75 | 202 | 5.2 | 12.2 | 0.00 | 0.00 | 0.00 | 71 | 1010.3 |
| 20260506193520 | 75 | 225 | 9.6 | 11.3 | 0.00 | 0.00 | 0.00 | 72 | 1010.3 |
| 20260506193020 | 75 | 221 | 8.7 | 11.3 | 0.00 | 0.00 | 0.00 | 72 | 1010.3 |
| 20260506192520 | 75 | 212 | 3.5 | 12.2 | 0.00 | 0.00 | 0.00 | 72 | 1010.7 |
| 20260506192020 | 75 | 213 | 4.3 | 13.9 | 0.00 | 0.00 | 0.00 | 72 | 1010.7 |
| 20260506191520 | 75 | 238 | 4.3 | 13.9 | 0.00 | 0.00 | 0.00 | 71 | 1010.7 |
| 20260506191020 | 75 | 201 | 10.4 | 16.5 | 0.00 | 0.00 | 0.00 | 71 | 1011.0 |
| 20260506190520 | 76 | 201 | 3.5 | 16.5 | 0.00 | 0.00 | 0.00 | 71 | 1011.0 |
| 20260506190020 | 76 | 217 | 15.6 | 15.6 | 0.00 | 0.00 | 0.00 | 69 | 1011.0 |
| 20260506185520 | 76 | 185 | 4.3 | 14.8 | 0.00 | 0.00 | 0.00 | 69 | 1011.1 |
| 20260506185020 | 76 | 190 | 7.0 | 14.8 | 0.00 | 0.00 | 0.00 | 69 | 1011.1 |
| 20260506184519 | 76 | 200 | 4.3 | 13.0 | 0.00 | 0.00 | 0.00 | 70 | 1011.1 |
| 20260506184020 | 76 | 200 | 9.6 | 13.9 | 0.00 | 0.00 | 0.00 | 70 | 1011.2 |
| 20260506183521 | 76 | 175 | 9.6 | 16.5 | 0.00 | 0.00 | 0.00 | 69 | 1011.2 |
| 20260506183020 | 76 | 179 | 7.0 | 20.0 | 0.00 | 0.00 | 0.00 | 69 | 1011.2 |
| 20260506182020 | 76 | 212 | 7.8 | 20.9 | 0.00 | 0.00 | 0.00 | 70 | 1011.2 |
| 20260506181520 | 75 | 243 | 5.2 | 14.8 | 0.00 | 0.00 | 0.00 | 70 | 1011.2 |
| 20260506180519 | 75 | 238 | 7.8 | 14.8 | 0.00 | 0.00 | 0.00 | 71 | 1011.1 |
| 20260506180050 | 75 | 184 | 4.3 | 12.2 | 0.00 | 0.00 | 0.00 | 71 | 1011.1 |
| 20260506175519 | 74 | 194 | 11.3 | 12.2 | 0.00 | 0.00 | 0.00 | 71 | 1011.4 |
| 20260506175019 | 74 | 175 | 4.3 | 15.6 | 0.00 | 0.00 | 0.00 | 72 | 1011.4 |
| 20260506174019 | 73 | 163 | 4.3 | 15.6 | 0.00 | 0.00 | 0.00 | 73 | 1011.6 |
| 20260506173519 | 73 | 210 | 6.1 | 16.5 | 0.00 | 0.00 | 0.00 | 72 | 1011.6 |
| 20260506173019 | 73 | 192 | 8.7 | 16.5 | 0.00 | 0.00 | 0.00 | 73 | 1011.6 |
| 20260506172519 | 73 | 185 | 4.3 | 12.2 | 0.00 | 0.00 | 0.00 | 73 | 1011.8 |
| 20260506172020 | 73 | 201 | 2.6 | 17.4 | 0.00 | 0.00 | 0.00 | 74 | 1011.8 |
| 20260506170519 | 72 | 300 | 0.9 | 21.7 | 0.00 | 0.00 | 0.00 | 73 | 1012.3 |
| 20260506165019 | 72 | 219 | 5.2 | 16.5 | 0.00 | 0.00 | 0.00 | 74 | 1012.4 |
| 20260506164519 | 72 | 225 | 13.9 | 16.5 | 0.00 | 0.00 | 0.00 | 74 | 1012.4 |
| 20260506164019 | 72 | 191 | 5.2 | 13.0 | 0.00 | 0.00 | 0.00 | 74 | 1012.4 |
| 20260506163519 | 72 | 229 | 10.4 | 16.5 | 0.00 | 0.00 | 0.00 | 75 | 1012.4 |
| 20260506163019 | 71 | 187 | 8.7 | 16.5 | 0.00 | 0.00 | 0.00 | 75 | 1012.4 |
| 20260506162519 | 71 | 219 | 5.2 | 14.8 | 0.00 | 0.00 | 0.00 | 74 | 1012.6 |
| 20260506162019 | 71 | 220 | 7.0 | 14.8 | 0.00 | 0.00 | 0.00 | 74 | 1012.6 |
| 20260506161519 | 71 | 171 | 4.3 | 14.8 | 0.00 | 0.00 | 0.00 | 75 | 1012.6 |
| 20260506161019 | 71 | 180 | 2.6 | 14.8 | 0.00 | 0.00 | 0.00 | 75 | 1012.8 |
| 20260506160519 | 71 | 215 | 8.7 | 13.9 | 0.00 | 0.00 | 0.00 | 74 | 1012.8 |
| 20260506160019 | 71 | 181 | 4.3 | 13.9 | 0.00 | 0.00 | 0.00 | 74 | 1012.8 |
| 20260506155520 | 71 | 197 | 8.7 | 18.2 | 0.00 | 0.00 | 0.00 | 75 | 1013.2 |
| 20260506155019 | 71 | 169 | 9.6 | 18.2 | 0.00 | 0.00 | 0.00 | 75 | 1013.2 |
| 20260506154519 | 71 | 240 | 7.8 | 13.9 | 0.00 | 0.00 | 0.00 | 75 | 1013.2 |
| 20260506154019 | 71 | 184 | 9.6 | 14.8 | 0.00 | 0.00 | 0.00 | 75 | 1013.2 |
| 20260506153519 | 71 | 204 | 11.3 | 17.4 | 0.00 | 0.00 | 0.00 | 75 | 1013.2 |
| 20260506153019 | 71 | 210 | 9.6 | 18.2 | 0.00 | 0.00 | 0.00 | 75 | 1013.2 |
| 20260506152019 | 71 | 237 | 8.7 | 14.8 | 0.00 | 0.00 | 0.00 | 74 | 1013.3 |
| 20260506151519 | 71 | 212 | 9.6 | 15.6 | 0.00 | 0.00 | 0.00 | 74 | 1013.3 |